Weather in Borki

Russia / Ryazan Oblast     53°56′37″N   41°49′19″E
temp.,
°C
wind,
m/s
gust,
m/s
humid.,
%
clouds,
%
prec.,
mm/h
press.,
hPa
HPBL,
m
4 august, wed
wed400:00+17nnw378591 0.1 1012122
03:00+16nw3585100 0.1 101396
06:00+16nnw3783100 0.0 1014162
09:00+20n3560100 0.0 1015542
12:00+24nw34411 0.0 10151926
15:00+23wnw4546100 0.0 1014762
18:00+21nw365445 0.0 1015144
21:00+18nnw226199 0.0 101624
5 august, thu
thu500:00+16nw2265100 0.0 101712
03:00+15nw226788 0.0 101715
06:00+16nnw22705 0.0 101850
09:00+21nw115215 0.0 1018477
12:00+25wnw124041 0.0 10181681
15:00+25e0237100 0.0 10172059
18:00+24e23466 0.0 1016170
21:00+20ese345399 0.0 101668
6 august, fri
fri600:00+18sse356195 0.0 101680
03:00+17sse396153 0.0 1016168
06:00+18sse41157100 0.0 1016301
09:00+19s41156100 0.0 1015450
12:00+22s2653100 0.0 1015411
15:00+24ese355079 0.0 1013302
18:00+27sse5942100 0.0 1012340
21:00+22sse5135335 0.0 1012281
7 august, sat
sat700:00+21sse5155264 0.0 1012332
03:00+20sse51453100 0.0 1012298
06:00+19s31256100 0.0 1013317
09:00+25s5740100 0.0 1014520
12:00+29s4530100 0.0 10141064
15:00+31se452722 0.0 10131928
18:00+28se59367 0.0 1013392
21:00+23se474798 0.0 1014115
8 august, sun
sun800:00+20ese4953100 0.0 1013152
03:00+20ese3650100 0.0 1013108
06:00+20ese3751100 0.0 1013132
09:00+25se3539100 0.0 1013299
12:00+31s4526100 0.0 10121023
15:00+25e4840100 0.0 1012156
18:00+27ese61338100 0.0 1011521
21:00+23ssw3555100 0.1 1013292